2020-081K

Last updated on Wed Nov 25 2020 00:02:05 GMT+0000 (Coordinated Universal Time)

1 46914U 20081K 20329.48858295 .00000456 00000-0 42660-4 0 9997 2 46914 36.9044 358.6484 0008537 136.8542 223.2869 14.99533243 1828
UTC large
Height (km)
Speed (km/s)
/
Latitude / Longitude
Inclination (degrees)
Orbital Period (minutes)
Azimuth
Elevation
Range (km)
Doppler Factor

Next 0 passes for location: London (51.5072 / 0.1276)

Sorry there are no passes over London.